User: anonymous   Login
Location: Whitehorse
(60.7170°N, 135.0500°W)
Time: 13:03:25
(UTC-08:00)
Language:

Cosmos 2219 Rocket - Orbit

View from above orbital plane
View from above orbital plane
View from above satellite
View from above satellite

Ground track
Ground track

The orbit data is extracted from the following two-line orbital elements,

1 22220U 92076B   14326.80037531  .00000302  00000-0  17586-3 0  4614
2 22220 071.0012 232.2778 0015109 263.5319 151.7808 14.16333286138040
Epoch (UTC): 22 November 2014 19:12:32
Eccentricity: 0.0015109
inclination: 71.0012°
perigee height: 827 km
apogee height: 848 km
right ascension of ascending node: 232.2778°
argument of perigee: 263.5319°
revolutions per day: 14.16333286
mean anomaly at epoch: 151.7808°
orbit number at epoch: 13804

The dashed part of the orbit path shows where the satellite is in the earth's shadow,  

DLR